Grand Rapids, MN

9:52 PM CDT on July 27, 2017 (GMT -0500)
Grand Rapids-Itasca County-Newstrom Field

Weather History for KGPZ - September, 2012

Change the Weather History Date:

Saturday, September 22, 2012

  Actual Average Record
Temperature  
Mean Temperature 42 °F -  
Max Temperature 50 °F 61 °F 90 °F (1936)
Min Temperature 33 °F 39 °F 23 °F (1947)
Degree Days  
Heating Degree Days 24    
Moisture  
Dew Point 32 °F    
Average Humidity 70    
Maximum Humidity 93    
Minimum Humidity 40    
Precipitation  
Precipitation 0.01 in - - ()
Sea Level Pressure  
Sea Level Pressure 30.12 in    
Wind  
Wind Speed 14 mph (NNW)    
Max Wind Speed 22 mph    
Max Gust Speed 28 mph    
Visibility 10 miles    
Events      
Averages and records for this station are not official NWS values.
T = Trace of Precipitation, MM = Missing Value Source: NWS Daily Summary

Daily Weather History Graph

Daily Weather History Graph

Search for Another Location

Airport or City:

Trip Planner

Search our weather history database for the weather conditions in past years. The results will help you decide how hot, cold, wet, or windy it might be!

Date:

Astronomy

Sep. 22, 2012 Rise Set
Actual Time 7:01 AM CDT 7:10 PM CDT
Civil Twilight 6:31 AM CDT 7:41 PM CDT
Nautical Twilight 5:55 AM CDT 8:16 PM CDT
Astronomical Twilight 5:18 AM CDT 8:53 PM CDT
Moon 2:43 PM CDT (9/22) 11:53 PM CDT (9/22)
Length of Visible Light 13h 10m
Length of Day
12h 09m
Waxing Crescent, 49% of the Moon is Illuminated
Sep 22
Waxing Crescent
Sep 22
First Quarter
Sep 29
Full
Oct 8
Last Quarter
Oct 15
New

Hourly Weather History & Observations

Time (CDT) Temp. Windchill Dew Point Humidity Pressure Visibility Wind Dir Wind Speed Gust Speed Precip Events Conditions
12:15 AM 37.4 °F 28.5 °F 33.8 °F 87% 29.86 in 10.0 mi NW 15.0 mph 23.0 mph N/A   Overcast
12:35 AM 37.4 °F 26.6 °F 33.8 °F 87% 29.86 in 10.0 mi NW 21.9 mph - N/A   Overcast
12:55 AM 37.4 °F 28.2 °F 33.8 °F 87% 29.88 in 10.0 mi NW 16.1 mph 25.3 mph N/A   Overcast
1:15 AM 37.4 °F 29.3 °F 33.8 °F 87% 29.89 in 10.0 mi NNW 12.7 mph 21.9 mph N/A   Overcast
1:35 AM 37.4 °F 29.3 °F 35.6 °F 93% 29.91 in 10.0 mi NNW 12.7 mph 19.6 mph N/A   Overcast
1:55 AM 39.2 °F 31.6 °F 35.6 °F 87% 29.91 in 10.0 mi NNW 12.7 mph - N/A   Overcast
2:15 AM 39.2 °F 29.6 °F 35.6 °F 87% 29.93 in 10.0 mi North 19.6 mph 26.5 mph N/A   Overcast
2:35 AM 39.2 °F 30.8 °F 37.4 °F 93% 29.94 in 10.0 mi North 15.0 mph 23.0 mph N/A   Overcast
2:55 AM 41.0 °F 31.9 °F 37.4 °F 87% 29.95 in 10.0 mi North 19.6 mph 25.3 mph N/A   Overcast
3:15 AM 41.0 °F 33.1 °F 37.4 °F 87% 29.97 in 10.0 mi North 15.0 mph 24.2 mph N/A   Overcast
3:35 AM 41.0 °F 33.5 °F 37.4 °F 87% 29.98 in 10.0 mi North 13.8 mph 23.0 mph N/A   Overcast
3:55 AM 41.0 °F 33.5 °F 37.4 °F 87% 29.99 in 10.0 mi North 13.8 mph 21.9 mph N/A   Mostly Cloudy
4:15 AM 41.0 °F 33.1 °F 37.4 °F 87% 30.01 in 10.0 mi North 15.0 mph 19.6 mph N/A   Overcast
4:35 AM 41.0 °F 33.5 °F 37.4 °F 87% 30.02 in 10.0 mi North 13.8 mph 19.6 mph N/A   Overcast
4:55 AM 41.0 °F 32.5 °F 37.4 °F 87% 30.03 in 10.0 mi North 17.3 mph 23.0 mph N/A   Overcast
5:15 AM 41.0 °F 32.8 °F 37.4 °F 87% 30.04 in 10.0 mi North 16.1 mph 23.0 mph N/A   Overcast
5:35 AM 41.0 °F 33.1 °F 35.6 °F 81% 30.05 in 10.0 mi North 15.0 mph 24.2 mph N/A   Overcast
5:55 AM 41.0 °F 33.9 °F 35.6 °F 81% 30.06 in 10.0 mi North 12.7 mph 20.7 mph N/A   Overcast
6:15 AM 41.0 °F 33.1 °F 35.6 °F 81% 30.08 in 10.0 mi North 15.0 mph - N/A   Overcast
6:35 AM 41.0 °F 33.9 °F 35.6 °F 81% 30.09 in 10.0 mi North 12.7 mph 19.6 mph N/A   Overcast
6:55 AM 41.0 °F 34.7 °F 35.6 °F 81% 30.10 in 10.0 mi North 10.4 mph - N/A   Overcast
7:15 AM 41.0 °F 34.3 °F 35.6 °F 81% 30.11 in 10.0 mi NNW 11.5 mph 17.3 mph N/A   Overcast
7:35 AM 41.0 °F 33.5 °F 35.6 °F 81% 30.12 in 10.0 mi NNW 13.8 mph - N/A   Overcast
7:55 AM 41.0 °F 33.9 °F 35.6 °F 81% 30.13 in 10.0 mi NW 12.7 mph - N/A   Overcast
8:15 AM 41.0 °F 33.5 °F 35.6 °F 81% 30.14 in 10.0 mi NNW 13.8 mph - N/A   Overcast
8:35 AM 41.0 °F 34.3 °F 33.8 °F 76% 30.15 in 10.0 mi NW 11.5 mph - N/A   Overcast
8:55 AM 41.0 °F 32.8 °F 33.8 °F 76% 30.15 in 10.0 mi NNW 16.1 mph 21.9 mph N/A   Overcast
9:15 AM 41.0 °F 32.5 °F 33.8 °F 76% 30.16 in 10.0 mi NNW 17.3 mph - N/A   Overcast
9:35 AM 41.0 °F 32.2 °F 33.8 °F 76% 30.17 in 10.0 mi NW 18.4 mph 23.0 mph N/A   Overcast
9:55 AM 39.2 °F 31.6 °F 33.8 °F 81% 30.17 in 4.0 mi NW 12.7 mph - N/A   Overcast
10:15 AM 39.2 °F 31.2 °F 35.6 °F 87% 30.18 in 7.0 mi NW 13.8 mph - N/A   Overcast
10:35 AM 41.0 °F 32.8 °F 33.8 °F 76% 30.18 in 10.0 mi NNW 16.1 mph 23.0 mph N/A   Overcast
10:55 AM 42.8 °F 35.4 °F 33.8 °F 70% 30.18 in 10.0 mi NNW 15.0 mph 24.2 mph N/A   Overcast
11:15 AM 42.8 °F 35.1 °F 33.8 °F 70% 30.18 in 10.0 mi NW 16.1 mph 19.6 mph N/A   Overcast
11:35 AM 44.6 °F 37.4 °F 30.2 °F 57% 30.18 in 10.0 mi North 16.1 mph 26.5 mph N/A   Mostly Cloudy
11:55 AM 44.6 °F 37.8 °F 30.2 °F 57% 30.19 in 10.0 mi NNW 15.0 mph 23.0 mph N/A   Overcast
12:15 PM 44.6 °F 37.8 °F 30.2 °F 57% 30.18 in 10.0 mi NNW 15.0 mph 24.2 mph N/A   Overcast
12:35 PM 44.6 °F 38.4 °F 32.0 °F 61% 30.19 in 10.0 mi WNW 12.7 mph 19.6 mph N/A   Overcast
12:55 PM 44.6 °F 38.8 °F 33.8 °F 66% 30.19 in 10.0 mi North 11.5 mph 16.1 mph N/A   Overcast
1:15 PM 46.4 °F 40.1 °F 33.8 °F 62% 30.18 in 10.0 mi NNW 15.0 mph 20.7 mph N/A   Overcast
1:35 PM 46.4 °F 39.8 °F 32.0 °F 57% 30.18 in 10.0 mi NW 16.1 mph - N/A   Mostly Cloudy
1:55 PM 46.4 °F 40.4 °F 32.0 °F 57% 30.18 in 10.0 mi NNW 13.8 mph - N/A   Mostly Cloudy
2:15 PM 44.6 °F 37.4 °F 35.6 °F 71% 30.18 in 10.0 mi NNW 16.1 mph - N/A   Overcast
2:35 PM 46.4 °F 40.4 °F 30.2 °F 53% 30.18 in 10.0 mi NW 13.8 mph 24.2 mph N/A   Mostly Cloudy
2:55 PM 46.4 °F 40.1 °F 32.0 °F 57% 30.18 in 10.0 mi NW 15.0 mph 24.2 mph N/A   Scattered Clouds
3:15 PM 48.2 °F - 30.2 °F 50% 30.17 in 10.0 mi NNW 20.7 mph 25.3 mph N/A   Mostly Cloudy
3:35 PM 48.2 °F - 28.4 °F 46% 30.18 in 10.0 mi NW 19.6 mph 27.6 mph N/A   Mostly Cloudy
3:55 PM 50.0 °F - 28.4 °F 43% 30.17 in 10.0 mi NW 20.7 mph 26.5 mph N/A   Mostly Cloudy
4:15 PM 50.0 °F - 28.4 °F 43% 30.17 in 10.0 mi NW 19.6 mph 25.3 mph N/A   Mostly Cloudy
4:35 PM 48.2 °F - 26.6 °F 43% 30.18 in 10.0 mi NNW 21.9 mph 26.5 mph N/A   Scattered Clouds
4:55 PM 50.0 °F - 26.6 °F 40% 30.18 in 10.0 mi NNW 19.6 mph 24.2 mph N/A   Scattered Clouds
5:15 PM 48.2 °F - 26.6 °F 43% 30.18 in 10.0 mi NNW 20.7 mph 24.2 mph N/A   Scattered Clouds
5:35 PM 48.2 °F - 24.8 °F 40% 30.19 in 10.0 mi NNW 21.9 mph 25.3 mph N/A   Clear
5:55 PM 48.2 °F - 26.6 °F 43% 30.19 in 10.0 mi NNW 17.3 mph - N/A   Scattered Clouds
6:15 PM 48.2 °F - 26.6 °F 43% 30.19 in 10.0 mi NNW 15.0 mph 20.7 mph N/A   Partly Cloudy
6:35 PM 46.4 °F 40.7 °F 26.6 °F 46% 30.19 in 10.0 mi NNW 12.7 mph - N/A   Clear
6:55 PM 46.4 °F 39.5 °F 24.8 °F 43% 30.20 in 10.0 mi NNW 17.3 mph 23.0 mph N/A   Clear
7:15 PM 44.6 °F 38.8 °F 26.6 °F 49% 30.20 in 10.0 mi NNW 11.5 mph - N/A   Clear
7:35 PM 44.6 °F 39.7 °F 26.6 °F 49% 30.20 in 10.0 mi NNW 9.2 mph - N/A   Partly Cloudy
7:55 PM 42.8 °F 37.5 °F 26.6 °F 53% 30.20 in 10.0 mi NNW 9.2 mph - N/A   Partly Cloudy
8:15 PM 41.0 °F 35.8 °F 26.6 °F 57% 30.20 in 10.0 mi NNW 8.1 mph - N/A   Clear
8:35 PM 39.2 °F 37.0 °F 26.6 °F 61% 30.21 in 10.0 mi NW 3.5 mph - N/A   Clear
8:55 PM 39.2 °F - 28.4 °F 65% 30.21 in 10.0 mi Calm Calm - N/A   Clear
9:15 PM 37.4 °F - 28.4 °F 70% 30.21 in 10.0 mi Calm Calm - N/A   Clear
9:35 PM 37.4 °F - 28.4 °F 70% 30.21 in 10.0 mi Calm Calm - N/A   Clear
9:55 PM 35.6 °F - 28.4 °F 75% 30.21 in 10.0 mi Calm Calm - N/A   Clear
10:15 PM 33.8 °F - 30.2 °F 87% 30.21 in 10.0 mi Calm Calm - N/A   Clear
10:35 PM 35.6 °F - 28.4 °F 75% 30.21 in 10.0 mi Calm Calm - N/A   Clear
10:55 PM 33.8 °F - 28.4 °F 81% 30.21 in 10.0 mi Calm Calm - N/A   Clear
11:15 PM 35.6 °F - 28.4 °F 75% 30.21 in 10.0 mi Calm Calm - N/A   Clear
11:35 PM 33.8 °F - 28.4 °F 81% 30.21 in 10.0 mi Calm Calm - N/A   Clear
11:55 PM 33.8 °F 28.6 °F 28.4 °F 81% 30.21 in 10.0 mi WNW 5.8 mph - N/A   Clear